Regional Weather Roundup
Issued by NWS

Home | Current Version | Previous Version | Text Only | Print | Product List | Glossary Off
Versions: 1 2 3 4 5 6 7 8 9 10 11 12 13 14 15 16 17 18 19 20 21 22 23 24 25 26 27 28 29 30 31 32 33 34 35 36 37 38 39 40 41 42 43 44 45 46 47 48 49 50

135
ASUS43 KIND 090909
RWRIN

WEATHER ROUNDUP FOR INDIANA
NATIONAL WEATHER SERVICE INDIANAPOLIS IN
400 AM EST TUE FEB 09 2016

NOTE: "FAIR" INDICATES FEW OR NO CLOUDS BELOW 12,000 FEET WITH NO
SIGNIFICANT WEATHER AND/OR OBSTRUCTIONS TO VISIBILITY.

* - STATION DOES NOT REPORT WEATHER SUCH AS PRECIPITATION OR FOG.

+ - STATION NOT QUALITY CONTROLLED BY THE NATIONAL WEATHER SERVICE.
    USE DATA WITH CAUTION...ESPECIALLY DEWPOINT AND RELATIVE
    HUMIDITY OBSERVATIONS.

INZ001>003-010>013-019-020-091000-
NORTHWEST INDIANA

CITY           SKY/WX    TMP DP  RH WIND       PRES   REMARKS
GARY /AIRPORT/ LGT SNOW  23  17  78 W10       29.73S WCI  12
KNOX *+        CLOUDY    23  21  93 W13       29.69S WCI  11
LA PORTE +     CLOUDY    25  23  91 NW9G18    29.68S WCI  16
MICHIGAN CITY+ LGT SNOW  25  23  93 W10       29.69F WCI  15
MONTICELLO +   FLURRIES  22  17  80 W8        29.70F WCI  13
RENSSELAER +   CLOUDY    23  18  80 W12G18    29.72S WCI  12
VALPARAISO     LGT SNOW  22  18  85 W15       29.69F WCI   9

$$

LMZ046-743>745-091000-
SOUTHERN LAKE MICHIGAN

STATION/POSITION TIME  TEMP    WIND        PRES    WAVE
                       AIR SEA DIR/SP/G            HT
                 (UTC) (F)     (DEG/KT/KT) (MB)    (FT)
BURNS HARBOR     0820   24     310/ 15/ 22 1006.8S
MICHIGAN CITY    0800   24     260/ 23/ 25   N/A

$$

INZ004-005-014>016-021>024-091000-
NORTH CENTRAL INDIANA

CITY           SKY/WX    TMP DP  RH WIND       PRES   REMARKS
GOSHEN         CLOUDY    26  23  88 W15       29.61F WCI  14
LOGANSPORT +   LGT SNOW  23  18  80 W12       29.69F WCI  12
PERU/GRISSOM   LGT SNOW  23  21  93 W15       29.66S FOG     WCI  10
ROCHESTER +    LGT SNOW  27  21  80 W10       29.67S WCI  17
SOUTH BEND     MIX PCPN  25  22  88 W18       29.64F WCI  11
WARSAW +       CLOUDY    27  23  86 W13       29.63F WCI  16

$$

INZ006>009-017-018-025>027-091000-
NORTHEAST INDIANA

CITY           SKY/WX    TMP DP  RH WIND       PRES   REMARKS
ANGOLA *+      CLOUDY    27  25  93 W7        29.57F WCI  19
AUBURN +       FLURRIES  28  23  80 W10       29.60F WCI  19
FORT WAYNE     FLURRIES  27  22  81 W15       29.63F WCI  15
HUNTINGTON +   LGT SNOW  24  19  83 W9G20     29.64F WCI  14

$$

INZ028-029-035-036-043>045-051>053-091000-
WEST CENTRAL INDIANA

CITY           SKY/WX    TMP DP  RH WIND       PRES   REMARKS
GREENCASTLE +  CLOUDY    21  14  73 W6        29.75S WCI  14
LAFAYETTE      CLOUDY    21  16  81 W13       29.73F WCI   9
TERRE HAUTE    FLURRIES  20  14  77 NW10      29.79S WCI   9

$$

INZ030>032-037>040-046>048-054>057-064-065-091000-
CENTRAL INDIANA

CITY           SKY/WX    TMP DP  RH WIND       PRES   REMARKS
FISHERS *+     CLOUDY    21  19  93 W10       29.71  WCI  10
FRANKFORT +    CLOUDY    22  14  72 W15       29.72S WCI   9
GREENWOOD *+   CLOUDY    21  19  93 W14       29.73S WCI   8
INDIANAPOLIS   FLURRIES  21  17  84 W13       29.72S WCI   9
-EAGLE CREEK   FLURRIES  21  18  88 W13G22    29.71F WCI   9
KOKOMO *+      CLOUDY    25  18  74 W17       29.68S WCI  11
MARION +       CLOUDY    24  16  71 W18       29.67F WCI  10
MT COMFORT *+  CLOUDY    21  19  93 W13       29.71S WCI   9
SHELBYVILLE    LGT SNOW  22  17  81 W13       29.71F WCI  10
ZIONSVILLE +   CLOUDY    20  18  89 W12G18    29.71S WCI   9

$$

INZ033-034-041-042-049-050-058-059-091000-
EAST CENTRAL INDIANA

CITY           SKY/WX    TMP DP  RH WIND       PRES   REMARKS
MUNCIE         LGT SNOW  24  19  81 W14       29.66F WCI  12

$$

INZ060-061-067>069-081>083-085>088-091000-
SOUTHWEST INDIANA

CITY           SKY/WX    TMP DP  RH WIND       PRES   REMARKS
EVANSVILLE     CLOUDY    23  14  68 W7        29.86S WCI  15
HUNTINGBURG *+ CLOUDY    21  14  73 W10       29.83S WCI  10
WASHINGTON +   CLOUDY    20  13  75 NW8       29.82S WCI  11

$$

INZ062-063-066-070>080-084-089>092-091000-
SOUTH CENTRAL AND SOUTHEAST INDIANA

CITY           SKY/WX    TMP DP  RH WIND       PRES   REMARKS
BEDFORD +      LGT SNOW  21  18  86 W6        29.78F WCI  14
BLOOMINGTON    FLURRIES  20  15  81 W10       29.76S WCI   9
MADISON *+     CLOUDY    21  16  79 W5        29.77S WCI  15
NORTH VERNON + FLURRIES  21  18  86 CALM      29.75S
SEYMOUR +      FLURRIES  23  16  74 W15       29.77S WCI  10

$$





USA.gov is the U.S. government's official web portal to all federal, state and local government web resources and services.